User: anonymous   Login
Location: Mentone
(34.5413°N, 85.5351°W)
Time: 07:27:15
(UTC-06:00)
Language:

SL-8 R/B - Orbit

View from above orbital plane
View from above orbital plane
View from above satellite
View from above satellite

Ground track
Ground track

The orbit data is extracted from the following two-line orbital elements,

1 33066U 08031G   14355.65758873  .00000932  00000-0  19018-3 0  9724
2 33066 048.4442 038.8388 0008298 239.1384 267.9847 14.69034230349158
Epoch (UTC): 21 December 2014 15:46:55
Eccentricity: 0.0008298
inclination: 48.4442°
perigee height: 658 km
apogee height: 670 km
right ascension of ascending node: 38.8388°
argument of perigee: 239.1384°
revolutions per day: 14.69034230
mean anomaly at epoch: 267.9847°
orbit number at epoch: 34915

The dashed part of the orbit path shows where the satellite is in the earth's shadow,  

DLR